This is the latest recevied weather packets stored in our database for station/object N2OCK. If no packets are shown the sender has not sent any weather packets the latest 10 day(s).
| Time | Temp. | Humidity | Pressure | Rain* | Wind** | Luminosity | Snow |
|---|---|---|---|---|---|---|---|
| 1777324092 | 17.22° C | 50% | 1024 hPa | 0 mm | - | 316 W/m² | - |
| 1777323789 | 17.78° C | 49% | 1024 hPa | 0 mm | - | 331 W/m² | - |
| 1777323486 | 17.78° C | 49% | 1023.8 hPa | 0 mm | - | 346 W/m² | - |
| 1777323183 | 17.78° C | 48% | 1024 hPa | 0 mm | - | 359 W/m² | - |
| 1777322881 | 17.22° C | 48% | 1024 hPa | 0 mm | - | 373 W/m² | - |
| 1777322580 | 17.22° C | 48% | 1024.2 hPa | 0 mm | - | 388 W/m² | - |
| 1777322276 | 17.78° C | 50% | 1024 hPa | 0 mm | - | 401 W/m² | - |
| 1777321973 | 18.33° C | 48% | 1024 hPa | 0 mm | - | 413 W/m² | - |
| 1777321670 | 17.78° C | 46% | 1023.8 hPa | 0 mm | - | 428 W/m² | - |
| 1777321366 | 17.78° C | 48% | 1023.9 hPa | 0 mm | - | 441 W/m² | - |
| 1777321064 | 17.78° C | 47% | 1023.8 hPa | 0 mm | - | 454 W/m² | - |
| 1777320762 | 17.78° C | 47% | 1023.6 hPa | 0 mm | - | 467 W/m² | - |
| 1777320458 | 18.33° C | 47% | 1023.5 hPa | 0 mm | - | 480 W/m² | - |
| 1777320155 | 18.33° C | 46% | 1023.8 hPa | 0 mm | - | 493 W/m² | - |
| 1777319852 | 18.33° C | 47% | 1023.7 hPa | 0 mm | - | 504 W/m² | - |
| 1777319549 | 17.78° C | 47% | 1023.5 hPa | 0 mm | - | 515 W/m² | - |
| 1777319246 | 17.22° C | 48% | 1023.7 hPa | 0 mm | - | 526 W/m² | - |
| 1777318943 | 18.33° C | 47% | 1023.6 hPa | 0 mm | - | 538 W/m² | - |
| 1777318640 | 18.33° C | 47% | 1023.5 hPa | 0 mm | - | 549 W/m² | - |
| 1777318336 | 18.33° C | 47% | 1023.6 hPa | 0 mm | - | 559 W/m² | - |
| 1777318033 | 18.33° C | 46% | 1023.7 hPa | 0 mm | - | 572 W/m² | - |
| 1777317730 | 17.78° C | 47% | 1023.7 hPa | 0 mm | - | 582 W/m² | - |
| 1777317427 | 18.89° C | 46% | 1023.6 hPa | 0 mm | - | 591 W/m² | - |
| 1777317123 | 18.89° C | 46% | 1023.7 hPa | 0 mm | - | 601 W/m² | - |
| 1777316820 | 19.44° C | 45% | 1023.7 hPa | 0 mm | - | 610 W/m² | - |
* Rain latest hour (hover to see other rain measurements)
** Current wind speed in m/s (hover to see current wind gust speed)